WET,Max TemperatureF,Mean TemperatureF,Min TemperatureF,Max Dew PointF,MeanDew PointF,Min DewpointF,Max Humidity, Mean Humidity, Min Humidity, Max Sea Level PressureIn, Mean Sea Level PressureIn, Min Sea Level PressureIn, Max VisibilityMiles, Mean VisibilityMiles, Min VisibilityMiles, Max Wind SpeedMPH, Mean Wind SpeedMPH, Max Gust SpeedMPH,PrecipitationIn, CloudCover, Events, WindDirDegrees
2012-11-1,70,66,62,64,61,57,94,83,65,29.98,29.79,29.62,6,5,2,15,6,,0.02,6,Rain,257
2012-11-2,72,67,62,68,63,57,94,84,71,30.06,30.00,29.95,5,5,3,14,5,,0.02,6,Rain,155
2012-11-3,75,72,69,68,66,63,94,80,72,29.98,29.95,29.92,5,4,2,21,13,32,0.08,6,Rain,213
2012-11-4,74,71,68,68,66,64,94,82,68,29.98,29.92,29.86,5,4,2,25,16,33,0.20,5,Rain,219
2012-11-5,63,59,55,61,55,48,94,83,65,30.09,30.04,29.98,6,4,1,14,7,,0.35,6,Rain,29
2012-11-6,64,60,55,61,59,55,94,88,81,30.04,30.01,29.98,6,4,2,18,10,,0.08,6,Rain,76
2012-11-7,66,64,63,63,60,57,88,84,74,30.15,30.04,29.95,5,4,3,32,18,40,0.55,6,Rain-Thunderstorm,93
2012-11-8,69,64,59,61,59,57,94,82,69,30.03,29.98,29.92,5,4,2,29,19,40,0.02,3,Rain-Thunderstorm,104
2012-11-9,68,63,58,59,57,54,94,83,64,30.02,29.99,29.92,6,4,2,13,5,,0.08,4,Rain-Thunderstorm,173
2012-11-10,66,60,55,59,55,52,94,80,59,30.04,29.99,29.92,6,4,2,18,8,,0.16,5,Rain-Thunderstorm,232
2012-11-11,61,58,54,57,47,39,94,65,39,30.01,29.91,29.86,6,5,1,25,18,38,0.00,4,Rain,329
2012-11-12,64,58,50,48,45,38,94,64,39,30.16,30.04,29.92,6,6,5,28,14,33,0.00,2,,62
2012-11-13,65,56,46,55,50,45,94,77,57,30.15,30.06,30.01,6,6,5,12,5,,0.00,1,,282
2012-11-14,69,59,49,57,52,46,94,78,55,30.04,29.97,29.92,6,6,5,14,5,,0.00,2,,79
2012-11-15,72,64,57,57,55,51,88,72,51,30.03,29.97,29.92,6,6,5,17,12,,0.00,2,,102
2012-11-16,72,64,57,57,55,52,88,73,47,30.02,29.94,29.86,6,6,3,16,11,,0.00,2,,116
2012-11-17,64,62,59,59,57,54,94,84,64,29.88,29.79,29.71,6,4,3,17,11,,0.59,4,Rain-Thunderstorm,194
2012-11-18,64,62,59,59,57,55,94,82,70,29.98,29.80,29.68,5,4,2,18,13,26,0.31,6,Rain,316
2012-11-19,66,60,53,59,55,50,94,82,61,30.12,30.06,29.98,6,5,3,10,6,,0.03,6,Rain,305
2012-11-20,68,59,50,57,53,48,94,83,51,30.13,30.09,30.06,6,5,4,8,3,,0.00,4,,69
2012-11-21,67,60,53,58,55,50,94,80,54,30.14,30.10,30.06,6,5,4,9,3,,0.00,6,,170
2012-11-22,70,61,52,59,54,50,94,82,51,30.18,30.13,30.09,6,6,5,10,4,,0.00,3,,94
2012-11-23,69,60,51,57,53,50,94,75,49,30.16,30.10,30.06,6,5,5,16,11,,0.00,4,,101
2012-11-24,70,64,58,59,55,52,82,75,52,30.11,30.07,30.04,6,5,3,16,11,,0.00,5,,107
2012-11-25,72,66,59,59,56,54,88,75,51,30.09,30.03,29.98,6,5,3,15,11,,0.00,5,,95
2012-11-26,71,64,57,59,54,50,82,74,53,30.02,29.97,29.95,6,5,3,13,9,,0.01,5,Rain,35
2012-11-27,59,57,55,50,43,37,72,58,36,29.99,29.95,29.92,6,6,5,21,14,29,0.00,6,,318
2012-11-28,57,54,51,46,43,39,76,63,46,30.04,29.96,29.89,6,6,4,20,13,29,0.01,4,Rain,328
2012-11-29,59,54,50,50,44,37,77,63,44,30.04,30.02,29.98,6,5,5,15,10,,0.00,5,Rain,321
2012-11-30,55,52,48,48,44,37,94,73,43,30.01,29.82,29.71,6,4,3,17,11,47,0.43,3,Rain-Thunderstorm,307